Precipitable_Water
1.47 1.47 1.47 1.47 1.41 1.37 1.35 1.33 1.31 1.27 1.23 1.21 1.17 1.17 1.15 1.15 1.13 1.13 1.15 1.19 1.21 1.23 1.27 1.27 1.27 1.27 1.27 1.27 1.27 1.27 1.27 1.29 1.31 1.31 1.33 1.35 1.35 1.35 1.35 1.35 1.35 1.33 1.35 1.35 1.37 1.39 1.39 1.41 1.43 1.43 1.39 1.39 1.37 1.33 1.31 1.31 1.29 1.27 1.25 1.21 1.17 1.15 1.17 1.19 1.19 1.19 1.21 1.21 1.21
1.47 1.51 1.51 1.47 1.41 1.37 1.33 1.31 1.29 1.25 1.23 1.21 1.17 1.17 1.15 1.15 1.15 1.15 1.17 1.19 1.21 1.23 1.23 1.23 1.25 1.25 1.25 1.23 1.23 1.25 1.25 1.25 1.29 1.31 1.31 1.33 1.35 1.35 1.35 1.35 1.35 1.35 1.35 1.35 1.35 1.35 1.35 1.35 1.33 1.31 1.29 1.29 1.25 1.23 1.21 1.21 1.19 1.15 1.13 1.11 1.07 1.07 1.09 1.11 1.13 1.15 1.17 1.19 1.23
1.51 1.53 1.51 1.43 1.37 1.33 1.29 1.27 1.25 1.23 1.21 1.19 1.19 1.19 1.19 1.19 1.19 1.19 1.19 1.21 1.23 1.23 1.25 1.23 1.23 1.23 1.23 1.21 1.21 1.23 1.23 1.23 1.25 1.27 1.29 1.33 1.33 1.35 1.35 1.35 1.37 1.37 1.35 1.35 1.33 1.31 1.31 1.31 1.25 1.21 1.19 1.15 1.13 1.09 1.07 1.05 1.03 1.03 1.01 1.03 0.97 0.97 0.99 1.01 1.03 1.07 1.09 1.11 1.17
1.51 1.49 1.45 1.37 1.33 1.29 1.27 1.23 1.21 1.21 1.19 1.19 1.19 1.19 1.21 1.21 1.23 1.23 1.23 1.25 1.25 1.25 1.25 1.25 1.25 1.25 1.25 1.25 1.31 1.31 1.31 1.29 1.29 1.27 1.27 1.29 1.33 1.33 1.35 1.37 1.37 1.37 1.37 1.33 1.31 1.29 1.25 1.19 1.15 1.11 1.05 1.01 0.97 0.95 0.92 0.92 0.92 0.92 0.90 0.86 0.88 0.88 0.90 0.92 0.94 0.95 0.97 0.97 0.92
1.45 1.43 1.39 1.31 1.27 1.25 1.23 1.21 1.19 1.19 1.19 1.19 1.19 1.21 1.21 1.23 1.25 1.27 1.27 1.27 1.27 1.27 1.29 1.33 1.35 1.35 1.39 1.47 1.45 1.41 1.37 1.37 1.35 1.33 1.33 1.31 1.33 1.33 1.35 1.35 1.35 1.35 1.35 1.31 1.27 1.23 1.17 1.07 1.03 0.97 0.92 0.90 0.88 0.86 0.84 0.84 0.84 0.84 0.82 0.82 0.82 0.82 0.82 0.82 0.84 0.84 0.84 0.84 0.78
1.39 1.37 1.33 1.25 1.23 1.21 1.19 1.19 1.17 1.19 1.19 1.19 1.19 1.19 1.21 1.23 1.25 1.25 1.25 1.27 1.29 1.31 1.35 1.43 1.47 1.47 1.47 1.45 1.43 1.41 1.41 1.41 1.41 1.39 1.37 1.33 1.33 1.33 1.33 1.33 1.31 1.31 1.31 1.29 1.19 1.09 0.99 0.95 0.94 0.92 0.88 0.86 0.84 0.84 0.84 0.84 0.82 0.82 0.80 0.78 0.78 0.78 0.78 0.76 0.76 0.76 0.76 0.74 0.70
1.35 1.31 1.27 1.21 1.19 1.17 1.17 1.17 1.17 1.19 1.19 1.19 1.19 1.19 1.19 1.21 1.23 1.25 1.25 1.27 1.31 1.35 1.39 1.43 1.35 1.31 1.31 1.33 1.33 1.33 1.35 1.37 1.37 1.37 1.35 1.33 1.31 1.29 1.29 1.27 1.25 1.21 1.19 1.15 1.07 0.97 0.92 0.90 0.88 0.86 0.84 0.84 0.84 0.84 0.84 0.84 0.82 0.80 0.78 0.76 0.76 0.76 0.76 0.74 0.74 0.72 0.70 0.68 0.66
1.31 1.27 1.23 1.17 1.15 1.15 1.15 1.15 1.17 1.19 1.17 1.17 1.17 1.17 1.19 1.21 1.23 1.25 1.27 1.31 1.31 1.29 1.25 1.25 1.23 1.21 1.21 1.21 1.21 1.23 1.25 1.29 1.29 1.29 1.29 1.27 1.25 1.21 1.17 1.15 1.11 1.07 1.03 1.01 0.95 0.90 0.86 0.86 0.84 0.82 0.82 0.82 0.80 0.80 0.82 0.82 0.80 0.78 0.74 0.72 0.74 0.74 0.74 0.74 0.72 0.72 0.70 0.68 0.66
1.23 1.21 1.19 1.17 1.17 1.17 1.17 1.17 1.19 1.17 1.15 1.13 1.15 1.15 1.17 1.19 1.23 1.25 1.25 1.27 1.21 1.19 1.17 1.17 1.15 1.13 1.11 1.11 1.11 1.11 1.13 1.15 1.15 1.15 1.13 1.13 1.09 1.05 1.01 0.99 0.95 0.94 0.92 0.92 0.86 0.82 0.82 0.80 0.80 0.78 0.78 0.78 0.78 0.78 0.78 0.78 0.76 0.74 0.72 0.72 0.72 0.72 0.74 0.74 0.72 0.72 0.70 0.68 0.66
1.21 1.21 1.21 1.19 1.19 1.19 1.19 1.19 1.19 1.17 1.15 1.15 1.17 1.17 1.19 1.21 1.19 1.17 1.15 1.15 1.13 1.11 1.11 1.09 1.07 1.05 1.05 1.03 1.03 1.01 1.01 1.01 0.99 0.97 0.97 0.95 0.94 0.94 0.90 0.88 0.86 0.86 0.84 0.84 0.80 0.78 0.76 0.76 0.76 0.74 0.76 0.76 0.74 0.74 0.74 0.74 0.72 0.70 0.70 0.70 0.70 0.70 0.70 0.70 0.70 0.70 0.70 0.68 0.68
1.23 1.23 1.21 1.19 1.19 1.19 1.17 1.17 1.15 1.15 1.15 1.17 1.19 1.21 1.21 1.19 1.15 1.13 1.11 1.11 1.09 1.07 1.05 1.05 1.03 1.01 0.99 0.97 0.95 0.95 0.94 0.94 0.90 0.88 0.88 0.86 0.86 0.84 0.82 0.80 0.80 0.80 0.78 0.76 0.76 0.76 0.74 0.72 0.72 0.72 0.72 0.72 0.72 0.72 0.72 0.72 0.70 0.68 0.68 0.68 0.68 0.68 0.68 0.68 0.68 0.68 0.68 0.68 0.66
1.23 1.21 1.19 1.17 1.17 1.15 1.15 1.13 1.13 1.13 1.15 1.17 1.19 1.19 1.17 1.15 1.13 1.09 1.07 1.07 1.05 1.03 1.03 1.03 0.99 0.97 0.95 0.94 0.92 0.90 0.90 0.88 0.84 0.84 0.82 0.80 0.80 0.78 0.78 0.78 0.76 0.76 0.74 0.74 0.74 0.74 0.72 0.72 0.70 0.70 0.70 0.70 0.70 0.70 0.70 0.70 0.68 0.66 0.66 0.64 0.66 0.64 0.64 0.66 0.66 0.66 0.66 0.66 0.64
1.19 1.17 1.15 1.15 1.13 1.13 1.11 1.11 1.11 1.11 1.11 1.13 1.15 1.15 1.15 1.11 1.09 1.07 1.03 1.03 1.01 0.99 0.99 0.97 0.95 0.94 0.92 0.90 0.88 0.88 0.86 0.84 0.82 0.80 0.78 0.76 0.76 0.76 0.74 0.74 0.74 0.74 0.72 0.72 0.72 0.72 0.72 0.70 0.70 0.68 0.68 0.68 0.68 0.68 0.68 0.66 0.64 0.64 0.62 0.62 0.62 0.62 0.62 0.62 0.64 0.64 0.62 0.62 0.62
1.15 1.13 1.13 1.13 1.11 1.11 1.11 1.09 1.07 1.07 1.07 1.09 1.11 1.11 1.11 1.09 1.07 1.03 0.99 0.97 0.97 0.95 0.95 0.94 0.94 0.92 0.90 0.88 0.86 0.84 0.84 0.82 0.80 0.78 0.76 0.74 0.74 0.74 0.74 0.72 0.72 0.72 0.72 0.72 0.72 0.72 0.70 0.70 0.68 0.68 0.66 0.66 0.66 0.66 0.66 0.66 0.64 0.64 0.62 0.60 0.60 0.60 0.60 0.60 0.62 0.62 0.60 0.60 0.60
1.11 1.11 1.11 1.09 1.09 1.09 1.07 1.05 1.05 1.03 1.01 1.03 1.05 1.07 1.07 1.05 1.03 0.99 0.95 0.94 0.94 0.94 0.92 0.92 0.90 0.90 0.88 0.86 0.84 0.82 0.80 0.78 0.78 0.76 0.74 0.74 0.74 0.72 0.72 0.72 0.72 0.72 0.70 0.70 0.70 0.70 0.70 0.70 0.68 0.68 0.66 0.66 0.66 0.66 0.66 0.64 0.64 0.64 0.62 0.62 0.60 0.60 0.60 0.60 0.62 0.62 0.60 0.60 0.58
1.07 1.07 1.05 1.05 1.03 1.03 1.03 1.01 1.01 0.99 0.99 0.99 0.99 0.99 0.99 0.97 0.95 0.94 0.92 0.92 0.90 0.90 0.90 0.88 0.86 0.84 0.84 0.82 0.80 0.80 0.78 0.76 0.76 0.74 0.72 0.72 0.72 0.72 0.72 0.70 0.70 0.70 0.70 0.70 0.68 0.68 0.68 0.68 0.68 0.68 0.66 0.66 0.64 0.64 0.66 0.66 0.64 0.64 0.64 0.64 0.62 0.62 0.62 0.62 0.62 0.62 0.62 0.62 0.60
1.01 1.01 0.99 0.99 0.97 0.97 0.97 0.97 0.97 0.95 0.95 0.95 0.94 0.94 0.94 0.92 0.92 0.90 0.90 0.88 0.86 0.86 0.84 0.84 0.82 0.80 0.80 0.78 0.78 0.76 0.76 0.74 0.74 0.72 0.72 0.70 0.70 0.70 0.70 0.68 0.68 0.68 0.68 0.66 0.66 0.66 0.66 0.66 0.68 0.66 0.66 0.66 0.66 0.66 0.66 0.66 0.66 0.66 0.64 0.64 0.64 0.64 0.62 0.62 0.64 0.64 0.64 0.62 0.62
0.95 0.95 0.94 0.94 0.94 0.94 0.94 0.94 0.94 0.92 0.92 0.92 0.90 0.90 0.90 0.90 0.88 0.86 0.86 0.84 0.82 0.82 0.80 0.78 0.78 0.78 0.76 0.74 0.74 0.74 0.72 0.72 0.72 0.70 0.70 0.70 0.70 0.68 0.68 0.68 0.68 0.68 0.68 0.66 0.66 0.66 0.66 0.66 0.66 0.66 0.66 0.66 0.66 0.66 0.66 0.66 0.66 0.64 0.64 0.64 0.64 0.64 0.64 0.64 0.64 0.66 0.64 0.64 0.64
0.90 0.90 0.90 0.90 0.90 0.90 0.90 0.90 0.90 0.88 0.88 0.88 0.88 0.86 0.86 0.86 0.84 0.82 0.82 0.80 0.80 0.78 0.76 0.74 0.74 0.74 0.72 0.70 0.70 0.70 0.70 0.70 0.68 0.68 0.68 0.68 0.68 0.68 0.66 0.66 0.68 0.68 0.68 0.68 0.66 0.66 0.66 0.66 0.66 0.66 0.66 0.66 0.66 0.66 0.66 0.66 0.66 0.64 0.64 0.64 0.64 0.64 0.64 0.66 0.66 0.66 0.66 0.66 0.66
0.86 0.86 0.86 0.86 0.86 0.86 0.86 0.86 0.86 0.84 0.84 0.84 0.84 0.82 0.82 0.82 0.80 0.78 0.76 0.76 0.76 0.74 0.72 0.70 0.70 0.70 0.68 0.68 0.68 0.68 0.68 0.68 0.68 0.66 0.66 0.68 0.68 0.68 0.68 0.68 0.68 0.68 0.68 0.68 0.66 0.66 0.66 0.66 0.66 0.66 0.66 0.66 0.66 0.64 0.66 0.66 0.66 0.66 0.66 0.66 0.66 0.66 0.66 0.68 0.68 0.68 0.68 0.68 0.68
0.82 0.82 0.82 0.82 0.82 0.82 0.82 0.82 0.82 0.82 0.80 0.80 0.80 0.78 0.78 0.78 0.76 0.74 0.74 0.72 0.70 0.70 0.68 0.68 0.66 0.66 0.66 0.66 0.66 0.66 0.66 0.68 0.68 0.66 0.68 0.68 0.68 0.68 0.68 0.68 0.68 0.68 0.68 0.66 0.66 0.66 0.66 0.66 0.66 0.66 0.66 0.66 0.66 0.66 0.66 0.66 0.66 0.66 0.66 0.68 0.68 0.68 0.68 0.70 0.70 0.70 0.70 0.70 0.70
0.78 0.78 0.78 0.78 0.78 0.78 0.78 0.80 0.78 0.78 0.78 0.78 0.76 0.76 0.74 0.74 0.72 0.70 0.70 0.68 0.68 0.68 0.66 0.66 0.66 0.66 0.66 0.66 0.66 0.66 0.68 0.68 0.68 0.68 0.68 0.68 0.68 0.68 0.68 0.68 0.68 0.66 0.66 0.66 0.66 0.66 0.66 0.66 0.66 0.66 0.66 0.68 0.68 0.68 0.68 0.68 0.68 0.68 0.68 0.68 0.68 0.68 0.70 0.70 0.70 0.70 0.70 0.70 0.70
0.76 0.76 0.78 0.78 0.78 0.78 0.78 0.78 0.76 0.76 0.74 0.74 0.72 0.72 0.70 0.70 0.68 0.68 0.68 0.68 0.68 0.68 0.66 0.66 0.66 0.68 0.68 0.68 0.68 0.68 0.68 0.68 0.68 0.68 0.68 0.68 0.68 0.68 0.68 0.68 0.66 0.66 0.66 0.66 0.66 0.66 0.66 0.66 0.66 0.68 0.68 0.68 0.68 0.68 0.68 0.68 0.68 0.68 0.68 0.68 0.70 0.70 0.70 0.70 0.70 0.70 0.72 0.72 0.72
0.76 0.76 0.76 0.76 0.76 0.76 0.76 0.74 0.74 0.72 0.70 0.70 0.70 0.68 0.68 0.68 0.68 0.68 0.68 0.68 0.68 0.68 0.68 0.68 0.68 0.68 0.68 0.70 0.70 0.68 0.68 0.68 0.68 0.68 0.68 0.68 0.68 0.68 0.66 0.66 0.66 0.66 0.66 0.66 0.66 0.66 0.66 0.66 0.66 0.68 0.68 0.68 0.68 0.68 0.70 0.70 0.70 0.70 0.70 0.68 0.70 0.70 0.70 0.70 0.72 0.72 0.72 0.72 0.72
0.74 0.74 0.74 0.74 0.74 0.74 0.72 0.72 0.70 0.68 0.68 0.68 0.68 0.68 0.68 0.68 0.68 0.68 0.68 0.70 0.70 0.68 0.68 0.68 0.68 0.70 0.70 0.70 0.70 0.70 0.68 0.68 0.68 0.66 0.66 0.66 0.66 0.66 0.66 0.66 0.66 0.66 0.66 0.66 0.68 0.68 0.68 0.68 0.68 0.68 0.68 0.68 0.68 0.70 0.70 0.70 0.70 0.70 0.70 0.70 0.68 0.70 0.70 0.70 0.72 0.72 0.72 0.72 0.72
0.74 0.72 0.72 0.72 0.72 0.70 0.70 0.70 0.68 0.68 0.68 0.68 0.68 0.68 0.68 0.68 0.70 0.70 0.70 0.68 0.68 0.68 0.68 0.68 0.68 0.70 0.70 0.70 0.70 0.68 0.68 0.68 0.68 0.66 0.66 0.66 0.66 0.66 0.66 0.66 0.66 0.66 0.66 0.68 0.68 0.68 0.68 0.68 0.70 0.70 0.70 0.68 0.68 0.68 0.70 0.70 0.70 0.70 0.70 0.70 0.70 0.70 0.70 0.70 0.70 0.72 0.72 0.72 0.74
0.70 0.70 0.70 0.70 0.70 0.70 0.70 0.70 0.70 0.70 0.70 0.70 0.70 0.70 0.70 0.70 0.70 0.70 0.70 0.68 0.68 0.68 0.68 0.68 0.68 0.70 0.70 0.70 0.68 0.68 0.68 0.68 0.68 0.66 0.66 0.66 0.66 0.66 0.66 0.66 0.66 0.66 0.66 0.68 0.68 0.68 0.68 0.70 0.70 0.70 0.70 0.70 0.70 0.70 0.70 0.70 0.70 0.70 0.70 0.70 0.70 0.70 0.70 0.70 0.70 0.70 0.72 0.74 0.74
0.68 0.68 0.70 0.70 0.70 0.70 0.70 0.70 0.70 0.70 0.70 0.70 0.70 0.70 0.70 0.70 0.70 0.70 0.70 0.70 0.70 0.70 0.70 0.68 0.70 0.70 0.68 0.68 0.68 0.68 0.68 0.68 0.68 0.68 0.68 0.66 0.66 0.66 0.66 0.66 0.66 0.66 0.66 0.66 0.68 0.68 0.68 0.70 0.70 0.70 0.70 0.70 0.70 0.70 0.70 0.70 0.70 0.70 0.70 0.70 0.70 0.70 0.70 0.70 0.70 0.70 0.72 0.74 0.74
0.70 0.70 0.70 0.70 0.70 0.72 0.72 0.72 0.72 0.70 0.70 0.70 0.70 0.70 0.70 0.70 0.70 0.70 0.70 0.70 0.70 0.68 0.68 0.68 0.68 0.68 0.68 0.66 0.66 0.68 0.68 0.68 0.68 0.68 0.66 0.66 0.66 0.66 0.66 0.66 0.66 0.66 0.66 0.66 0.68 0.68 0.68 0.70 0.70 0.70 0.70 0.72 0.72 0.72 0.72 0.70 0.70 0.70 0.70 0.70 0.70 0.70 0.70 0.70 0.70 0.70 0.72 0.72 0.74
0.74 0.74 0.72 0.72 0.72 0.72 0.72 0.72 0.72 0.72 0.72 0.72 0.72 0.72 0.70 0.70 0.70 0.70 0.70 0.70 0.68 0.68 0.68 0.68 0.68 0.66 0.66 0.66 0.66 0.66 0.66 0.66 0.66 0.66 0.66 0.64 0.64 0.64 0.64 0.66 0.66 0.66 0.66 0.66 0.68 0.68 0.68 0.70 0.70 0.70 0.72 0.72 0.72 0.72 0.72 0.72 0.70 0.70 0.70 0.70 0.70 0.70 0.70 0.70 0.70 0.70 0.70 0.72 0.72
0.76 0.76 0.76 0.76 0.74 0.74 0.74 0.74 0.74 0.74 0.74 0.72 0.72 0.72 0.70 0.70 0.70 0.70 0.70 0.70 0.70 0.68 0.68 0.68 0.66 0.66 0.66 0.66 0.66 0.66 0.64 0.64 0.64 0.64 0.64 0.64 0.64 0.64 0.66 0.66 0.66 0.66 0.66 0.68 0.68 0.68 0.68 0.70 0.70 0.70 0.72 0.72 0.72 0.72 0.72 0.72 0.72 0.70 0.70 0.70 0.70 0.70 0.70 0.70 0.70 0.70 0.70 0.70 0.72
0.78 0.78 0.78 0.78 0.78 0.78 0.78 0.76 0.76 0.74 0.74 0.74 0.72 0.72 0.70 0.70 0.70 0.70 0.70 0.70 0.68 0.68 0.66 0.66 0.66 0.64 0.64 0.64 0.64 0.64 0.64 0.64 0.64 0.64 0.66 0.66 0.66 0.66 0.66 0.66 0.66 0.68 0.68 0.68 0.70 0.70 0.70 0.70 0.70 0.70 0.70 0.72 0.72 0.72 0.72 0.72 0.72 0.72 0.72 0.72 0.70 0.70 0.70 0.70 0.70 0.70 0.70 0.72 0.72
0.78 0.78 0.78 0.78 0.78 0.78 0.78 0.78 0.76 0.74 0.74 0.72 0.72 0.72 0.70 0.70 0.70 0.70 0.70 0.68 0.68 0.68 0.66 0.66 0.64 0.64 0.64 0.64 0.64 0.64 0.64 0.64 0.64 0.66 0.66 0.66 0.66 0.66 0.66 0.68 0.68 0.68 0.68 0.70 0.70 0.70 0.70 0.70 0.70 0.70 0.70 0.72 0.72 0.72 0.72 0.72 0.72 0.72 0.72 0.72 0.72 0.70 0.70 0.70 0.70 0.72 0.72 0.72 0.74
0.80 0.80 0.80 0.78 0.78 0.78 0.76 0.76 0.74 0.74 0.72 0.72 0.70 0.70 0.70 0.70 0.68 0.68 0.68 0.68 0.68 0.68 0.66 0.66 0.66 0.66 0.66 0.66 0.66 0.66 0.66 0.66 0.66 0.66 0.68 0.68 0.68 0.68 0.68 0.68 0.68 0.68 0.70 0.70 0.70 0.70 0.70 0.70 0.70 0.70 0.70 0.72 0.72 0.72 0.72 0.72 0.72 0.72 0.72 0.72 0.72 0.72 0.72 0.72 0.72 0.72 0.72 0.74 0.74
0.80 0.78 0.78 0.78 0.78 0.76 0.76 0.74 0.74 0.72 0.72 0.70 0.70 0.70 0.68 0.68 0.68 0.68 0.66 0.66 0.68 0.68 0.68 0.68 0.68 0.68 0.68 0.68 0.68 0.68 0.68 0.68 0.68 0.68 0.68 0.68 0.68 0.68 0.68 0.68 0.68 0.68 0.70 0.70 0.70 0.70 0.70 0.70 0.70 0.70 0.70 0.70 0.70 0.70 0.72 0.72 0.72 0.72 0.72 0.72 0.72 0.72 0.72 0.72 0.72 0.74 0.74 0.74 0.76
0.78 0.78 0.76 0.76 0.76 0.74 0.74 0.74 0.72 0.70 0.70 0.70 0.68 0.68 0.68 0.68 0.68 0.68 0.68 0.68 0.68 0.68 0.68 0.68 0.68 0.68 0.68 0.68 0.68 0.68 0.68 0.68 0.68 0.68 0.68 0.70 0.68 0.68 0.68 0.68 0.68 0.70 0.70 0.70 0.70 0.70 0.72 0.72 0.72 0.72 0.70 0.70 0.70 0.70 0.70 0.72 0.72 0.72 0.72 0.72 0.72 0.72 0.72 0.74 0.74 0.74 0.76 0.78 0.78
0.78 0.76 0.76 0.74 0.74 0.74 0.72 0.72 0.70 0.70 0.68 0.68 0.68 0.68 0.68 0.68 0.68 0.68 0.68 0.68 0.68 0.68 0.68 0.68 0.68 0.68 0.68 0.68 0.68 0.68 0.70 0.70 0.70 0.70 0.70 0.70 0.70 0.68 0.68 0.68 0.68 0.70 0.70 0.70 0.72 0.72 0.72 0.72 0.72 0.72 0.72 0.70 0.70 0.70 0.70 0.72 0.72 0.72 0.72 0.72 0.72 0.74 0.74 0.74 0.74 0.76 0.76 0.78 0.78
0.76 0.76 0.76 0.74 0.74 0.74 0.72 0.70 0.70 0.68 0.68 0.68 0.68 0.68 0.68 0.68 0.68 0.68 0.70 0.70 0.68 0.68 0.68 0.68 0.68 0.68 0.68 0.68 0.68 0.70 0.70 0.70 0.70 0.70 0.70 0.70 0.70 0.70 0.68 0.68 0.70 0.70 0.72 0.72 0.72 0.72 0.72 0.72 0.72 0.72 0.72 0.70 0.70 0.70 0.70 0.72 0.72 0.72 0.72 0.72 0.72 0.74 0.74 0.76 0.76 0.76 0.78 0.78 0.78
0.78 0.78 0.78 0.76 0.76 0.74 0.74 0.72 0.70 0.70 0.70 0.70 0.70 0.70 0.70 0.70 0.70 0.70 0.70 0.72 0.70 0.70 0.70 0.68 0.68 0.70 0.70 0.70 0.70 0.68 0.70 0.70 0.70 0.70 0.70 0.70 0.70 0.70 0.70 0.68 0.70 0.72 0.72 0.72 0.72 0.72 0.72 0.72 0.72 0.72 0.72 0.72 0.72 0.72 0.72 0.72 0.72 0.72 0.72 0.72 0.74 0.74 0.74 0.76 0.76 0.76 0.78 0.78 0.78
0.80 0.80 0.80 0.78 0.78 0.76 0.76 0.74 0.74 0.72 0.72 0.72 0.72 0.70 0.70 0.70 0.70 0.72 0.72 0.72 0.72 0.72 0.70 0.70 0.70 0.70 0.70 0.70 0.70 0.70 0.70 0.70 0.70 0.70 0.70 0.70 0.70 0.70 0.70 0.70 0.70 0.72 0.72 0.74 0.74 0.72 0.72 0.72 0.72 0.72 0.72 0.72 0.72 0.72 0.72 0.72 0.70 0.70 0.70 0.72 0.72 0.74 0.74 0.76 0.76 0.76 0.76 0.78 0.78
0.82 0.82 0.80 0.80 0.78 0.78 0.78 0.76 0.76 0.74 0.74 0.74 0.72 0.72 0.72 0.72 0.72 0.72 0.72 0.72 0.72 0.72 0.70 0.70 0.70 0.70 0.70 0.70 0.70 0.70 0.70 0.70 0.70 0.70 0.70 0.70 0.70 0.70 0.70 0.70 0.70 0.70 0.72 0.72 0.74 0.74 0.72 0.72 0.72 0.72 0.72 0.72 0.72 0.72 0.70 0.70 0.70 0.70 0.70 0.70 0.72 0.72 0.74 0.74 0.76 0.76 0.76 0.76 0.78
Wind_Speed
26 26 26 27 27 27 26 26 25 25 25 24 23 23 23 23 23 23 23 23 23 24 24 24 24 24 24 24 24 25 25 25 25 25 25 24 24 24 25 25 25 25 25 25 25 25 24 24 24 24 24 25 26 27 28 30 30 31 31 32 32 33 33 33 34 34 34 35 35
26 26 26 27 27 26 26 26 25 25 25 24 24 24 24 24 24 24 24 24 24 24 24 24 24 24 24 24 24 24 25 25 25 25 24 24 24 24 24 25 25 25 25 25 25 24 24 24 24 25 26 28 29 30 31 32 32 33 33 33 34 34 34 34 35 35 35 35 35
26 26 26 26 26 26 26 26 26 25 25 24 24 24 24 24 24 24 24 24 24 24 24 24 24 24 24 24 24 24 24 24 24 24 24 24 24 24 24 25 25 25 25 25 25 25 25 26 26 28 29 31 32 32 33 34 34 34 34 35 35 35 35 35 36 36 36 36 36
27 27 26 26 27 26 26 26 26 25 25 24 24 24 24 24 24 24 24 24 24 24 24 24 24 23 23 23 22 22 22 22 22 23 23 24 24 24 24 25 25 25 25 26 26 27 28 28 29 30 31 32 33 34 34 34 35 35 35 36 36 36 36 36 37 37 37 37 37
28 28 27 27 27 27 27 26 25 25 25 25 25 24 24 24 24 24 25 25 25 24 24 24 24 23 22 21 21 21 21 22 22 23 23 24 24 25 25 25 26 27 27 28 28 29 30 30 31 32 32 33 33 34 34 35 35 35 36 36 36 36 37 37 37 37 37 38 38
28 27 28 28 27 27 26 26 25 25 25 25 25 25 25 25 25 25 25 25 25 24 23 23 23 22 22 21 21 22 23 24 24 25 25 25 26 26 26 27 27 28 29 29 30 30 31 31 31 31 32 32 33 33 34 35 35 35 36 36 36 37 37 37 37 37 37 37 37
27 27 27 27 27 27 26 26 26 25 25 25 25 25 25 25 25 26 26 25 25 24 24 24 24 24 25 25 26 26 26 27 27 27 27 27 27 27 27 27 28 29 29 30 30 30 30 30 31 31 31 32 32 33 34 34 34 35 35 36 36 36 36 36 36 35 35 35 35
27 27 27 27 27 27 26 26 26 26 26 26 25 25 25 25 25 26 26 25 25 25 25 26 26 27 28 28 28 28 28 27 27 27 27 27 27 27 27 27 28 28 29 29 29 29 29 30 30 30 31 31 32 32 33 33 33 34 34 34 34 34 34 34 34 34 34 34 34
27 27 27 27 27 27 26 26 26 26 26 26 25 25 25 25 25 25 25 25 25 25 25 26 27 27 28 28 28 28 28 28 27 27 27 28 27 27 27 27 28 28 28 28 28 28 29 29 29 30 30 30 31 31 32 32 32 32 33 33 33 33 33 33 33 34 34 34 35
27 27 27 27 27 27 27 26 26 26 26 26 25 25 25 24 24 24 24 25 25 25 26 26 26 27 27 27 27 28 28 28 28 28 28 28 28 27 27 27 27 28 28 28 28 28 28 28 29 29 30 30 30 31 31 31 31 32 32 33 33 33 34 34 34 34 35 35 35
28 28 28 27 27 27 27 27 26 26 26 25 25 25 24 24 24 24 25 25 25 25 26 26 26 26 26 27 27 27 27 28 28 28 28 28 28 28 28 28 28 28 28 28 28 28 29 29 29 30 30 30 31 31 32 32 32 33 33 34 34 34 35 35 35 35 36 36 36
27 27 27 27 27 27 27 27 26 26 26 25 25 25 25 25 25 25 25 25 25 25 26 26 26 26 26 26 27 27 27 27 27 27 28 28 28 28 28 28 28 29 29 29 29 29 30 30 31 31 32 32 32 33 33 34 34 34 35 35 35 36 36 37 37 37 37 37 37
27 27 27 27 27 26 26 26 26 26 26 25 25 25 25 25 25 25 25 25 25 25 26 26 26 26 26 26 27 27 27 27 27 28 28 28 28 29 29 29 29 30 30 30 30 31 31 32 32 33 33 34 34 34 34 35 35 36 36 36 37 37 37 38 38 38 38 38 38
26 26 26 26 26 26 26 26 26 26 25 25 25 25 25 25 25 25 25 25 25 25 25 25 26 26 26 26 27 27 27 27 28 28 28 29 29 29 30 30 30 31 31 31 32 32 32 33 33 34 34 35 35 35 35 36 36 36 37 37 37 38 38 38 38 38 39 39 39
25 25 25 25 25 25 25 25 25 25 25 25 25 25 25 24 24 24 24 25 25 25 25 25 26 26 26 26 27 27 27 28 28 28 29 29 29 30 30 30 31 31 32 32 32 33 33 33 34 34 35 35 36 36 36 36 37 37 37 38 38 38 38 38 39 39 39 39 39
25 25 25 25 25 25 25 25 25 25 24 24 24 24 24 24 25 25 24 25 25 25 25 26 26 26 27 27 27 28 28 28 28 29 29 30 30 30 31 31 31 32 32 33 33 34 34 34 35 35 36 36 36 37 37 37 37 37 38 38 38 38 38 38 38 38 38 38 39
24 25 25 25 25 24 24 24 24 24 24 24 24 24 24 25 25 25 25 25 25 25 26 26 27 27 27 28 28 28 28 28 29 29 30 30 31 31 31 32 32 33 33 34 34 35 35 35 36 36 36 37 37 37 37 37 38 38 38 38 38 38 38 38 38 38 38 38 38
25 25 25 24 24 24 24 24 24 24 24 24 24 24 25 25 25 25 25 25 26 26 27 27 27 28 28 28 28 28 29 29 30 30 31 31 32 32 32 33 33 34 34 35 35 36 36 36 37 37 37 37 38 38 38 37 37 37 37 37 37 37 37 37 37 37 37 38 38
25 24 24 24 24 24 24 24 24 24 24 24 24 25 25 25 25 26 26 26 27 27 27 27 28 28 28 28 29 29 30 30 31 31 32 32 32 33 33 34 34 35 35 36 36 36 37 37 37 38 38 38 38 37 37 37 37 37 37 37 37 37 37 37 37 37 37 37 37
24 24 24 24 24 24 24 24 24 24 25 25 25 25 25 26 26 26 26 27 27 27 27 28 28 28 29 29 30 30 31 31 31 32 33 33 33 34 34 35 35 36 36 36 37 37 37 37 37 37 37 37 37 37 37 37 37 36 36 36 36 37 37 37 37 37 37 37 37
24 24 24 24 24 24 24 24 25 25 25 25 25 25 26 26 26 26 27 27 27 27 27 28 28 29 29 30 30 31 32 32 33 33 34 34 34 35 35 35 36 36 36 36 36 36 36 36 36 36 36 36 36 36 36 36 36 36 36 36 36 36 36 36 36 36 36 36 36
24 24 24 24 24 24 24 24 25 25 25 25 26 26 26 26 26 27 27 27 27 28 28 28 29 30 30 31 31 32 33 33 34 34 34 35 35 35 35 35 35 35 36 35 35 35 35 35 35 35 35 35 35 35 35 35 35 35 35 35 35 35 35 35 35 35 35 35 35
24 24 24 24 24 24 24 25 25 25 25 25 26 26 26 26 27 27 27 27 28 28 29 29 30 30 31 32 32 33 33 34 34 34 34 34 34 35 35 35 34 34 34 34 34 34 35 35 34 34 34 34 34 34 34 34 34 34 34 34 34 34 34 34 34 34 34 33 33
24 24 24 24 24 24 25 25 25 25 25 25 26 26 26 27 27 27 27 28 28 29 29 30 30 31 32 32 32 33 33 33 33 34 34 33 33 33 34 34 34 34 34 34 34 34 34 34 34 33 33 33 33 33 34 34 34 34 34 34 34 34 33 33 33 33 33 33 32
24 24 24 24 24 24 25 25 25 25 25 26 26 26 27 27 27 28 28 28 29 29 30 30 31 31 31 32 32 32 32 32 32 32 32 32 32 33 33 33 33 33 33 33 34 34 34 34 34 34 33 33 33 33 33 33 33 34 34 34 34 33 33 33 32 32 32 31 31
24 24 24 24 24 24 25 25 25 25 25 26 26 26 27 27 28 28 28 29 29 30 30 30 30 31 31 31 31 31 31 31 31 31 32 32 32 32 32 32 33 33 33 34 34 34 34 34 34 34 34 33 33 33 33 33 33 33 33 33 33 32 32 32 32 31 31 30 30
23 24 24 24 24 25 25 25 25 26 26 26 26 27 27 28 28 28 29 29 29 30 30 30 30 30 30 30 30 30 31 31 31 31 31 31 32 32 32 33 33 33 34 34 34 35 35 35 35 34 34 33 33 33 33 33 33 33 33 32 32 32 31 31 31 30 30 29 28
24 24 24 24 24 25 25 25 25 26 26 26 27 27 28 28 28 28 29 29 29 29 29 29 29 29 29 30 30 30 31 31 31 31 31 32 32 32 33 33 33 34 34 34 35 35 35 35 35 34 34 33 33 33 33 33 33 33 32 32 31 31 30 30 29 29 28 28 27
24 24 24 24 24 25 25 25 25 26 26 26 27 27 27 27 28 28 28 28 28 28 28 29 29 29 29 30 30 30 31 31 31 31 32 32 32 33 33 33 34 34 34 35 35 35 35 35 34 34 34 33 33 33 32 32 32 32 31 31 31 30 29 29 28 28 27 27 26
24 24 24 24 24 25 25 25 26 26 26 26 27 27 27 27 27 28 28 28 28 28 28 28 29 29 29 30 30 30 31 31 31 31 32 32 32 33 33 33 33 33 34 34 34 34 34 34 34 34 33 33 32 32 32 32 31 31 30 30 30 29 29 28 27 27 26 26 25
24 24 24 24 24 24 25 25 26 26 26 26 27 27 27 27 27 27 28 28 28 28 28 28 29 29 30 30 30 30 30 30 31 31 31 31 32 32 32 32 32 32 32 32 32 32 32 32 32 32 32 32 31 31 31 31 30 30 30 29 29 28 28 27 27 26 26 25 25
24 24 24 24 24 24 25 25 26 26 26 26 27 27 27 27 27 27 27 28 28 28 28 29 29 29 29 29 30 30 30 30 30 30 30 30 31 31 31 31 31 31 31 31 31 31 31 31 31 31 31 31 30 30 30 30 30 29 29 29 28 28 27 27 26 26 25 25 25
23 24 24 24 24 25 25 25 26 26 26 26 27 27 27 27 27 27 27 27 28 28 28 29 29 29 29 29 29 29 29 29 29 29 30 30 30 30 30 30 30 30 30 30 30 30 30 30 29 29 29 29 29 29 29 29 29 29 28 28 28 27 27 26 26 26 25 25 25
23 24 24 24 25 25 25 26 26 26 26 27 27 27 27 27 27 27 27 27 28 28 28 29 29 29 29 29 28 28 28 28 29 29 29 29 29 29 29 29 29 29 29 29 29 29 29 28 28 28 28 28 28 28 28 28 28 28 28 28 27 27 27 26 26 25 25 25 25
23 24 24 25 25 25 26 26 27 27 27 27 27 27 27 27 27 27 27 27 27 28 28 28 28 28 28 28 27 27 28 28 28 28 28 28 28 27 28 28 28 28 28 29 29 28 28 28 27 27 27 27 27 27 28 28 28 28 27 27 27 27 26 26 26 25 25 25 25
24 25 25 25 26 26 27 27 27 27 27 27 27 27 27 27 27 27 27 27 27 27 28 27 27 27 27 27 26 27 27 27 27 27 26 26 26 26 26 27 27 27 27 28 28 27 27 27 27 27 27 27 27 27 27 27 27 27 27 27 27 26 26 26 25 25 25 25 25
25 25 26 26 27 27 27 28 28 28 28 28 27 27 27 27 27 27 27 27 27 27 27 26 26 26 26 25 25 26 26 26 25 25 25 25 25 25 25 26 26 26 26 26 26 26 26 27 27 27 27 26 26 26 26 26 26 26 26 26 26 26 26 25 25 25 25 25 25
26 26 27 27 28 28 28 28 28 28 28 28 27 27 27 26 26 26 26 26 26 26 25 25 25 24 24 24 24 25 25 25 25 24 24 24 24 24 25 25 25 25 26 26 26 26 26 26 26 26 26 26 26 26 26 26 26 25 25 25 25 25 25 25 25 25 25 25 25
26 27 27 28 28 28 28 28 28 28 28 27 27 27 26 26 26 25 25 25 24 24 24 23 23 23 23 23 24 24 24 24 24 24 24 24 24 24 24 25 25 25 25 25 25 25 26 26 26 26 26 25 25 25 25 24 24 24 24 24 24 24 24 24 24 25 25 25 25
26 26 27 27 27 27 27 27 27 27 27 26 26 25 25 24 24 24 23 23 23 22 22 22 22 22 23 23 23 24 24 24 24 24 25 25 25 25 25 25 25 25 25 25 25 25 25 26 26 26 25 24 24 24 24 23 24 24 24 24 23 23 23 23 24 24 24 24 25
25 25 25 25 25 25 25 25 25 24 24 24 23 23 23 22 22 22 21 21 21 21 21 22 22 22 23 23 23 24 24 24 25 25 25 25 25 25 25 25 25 25 25 25 25 25 25 25 25 25 25 24 23 23 23 22 23 23 23 23 23 22 22 23 23 23 23 23 23
Wind_Direction
243 244 244 242 240 239 240 241 244 247 249 251 250 250 250 251 253 254 255 256 257 258 258 258 258 259 260 261 262 262 262 263 263 263 262 261 260 260 260 260 260 260 260 259 258 257 256 256 257 258 259 261 263 265 267 268 268 269 269 269 269 269 269 270 270 271 271 272 273
242 242 240 238 238 238 240 242 245 248 249 250 249 249 250 251 253 254 255 256 257 258 258 259 259 260 262 263 264 264 264 265 265 265 264 263 262 261 261 261 261 261 261 260 259 258 258 259 260 262 263 265 266 267 268 268 268 269 269 269 269 269 269 270 270 271 272 274 275
237 235 234 235 237 239 241 243 246 248 249 249 249 249 250 251 253 254 256 256 257 258 258 258 259 261 262 263 264 264 265 265 265 265 264 263 262 262 262 263 262 262 262 262 263 262 262 263 264 265 266 267 267 268 268 268 268 268 269 269 269 270 270 271 272 273 274 275 276
232 232 234 236 238 240 242 245 246 248 248 248 248 249 250 252 253 255 255 256 256 257 258 259 260 260 261 261 262 262 263 264 264 264 265 265 264 264 264 264 264 263 263 264 266 266 267 267 267 267 267 267 267 267 267 268 268 269 269 270 271 272 272 273 274 275 276 276 277
231 234 236 238 240 242 244 245 246 247 247 248 248 249 251 252 254 255 255 256 257 258 259 260 259 259 258 259 260 262 264 264 264 265 266 267 267 267 267 266 265 265 265 267 268 269 270 269 269 268 268 268 267 268 268 268 269 270 271 271 272 273 274 275 276 276 277 277 277
232 235 238 240 241 243 244 245 246 246 247 248 249 250 251 252 254 255 255 256 257 258 259 258 257 256 258 260 263 265 266 266 266 267 267 269 269 268 267 266 267 267 268 269 270 271 271 270 270 269 269 269 269 269 269 270 270 271 272 273 274 274 275 276 276 277 277 277 277
234 236 238 239 241 242 244 245 246 247 248 248 249 250 252 253 254 255 257 258 258 258 258 257 257 259 261 264 266 267 267 268 268 268 268 269 269 269 268 268 269 269 270 270 270 271 271 271 270 270 271 271 271 271 271 272 272 273 274 274 275 275 275 276 276 276 277 277 277
235 237 238 239 240 241 243 244 246 247 248 250 251 252 253 254 255 257 258 260 260 260 260 260 261 263 264 266 267 267 267 267 268 268 268 269 269 269 269 269 269 269 269 269 270 270 271 271 271 271 271 272 272 272 273 273 274 274 275 275 275 276 276 276 276 277 277 277 277
236 238 239 239 240 241 243 244 246 248 249 251 252 254 255 256 258 259 260 261 262 262 263 263 264 264 265 266 267 267 267 267 267 268 268 268 269 269 269 268 269 269 269 270 270 270 271 271 271 271 272 272 273 273 274 274 275 275 275 275 276 276 276 276 277 277 277 277 278
237 238 239 239 240 241 243 245 247 249 251 252 254 256 257 258 259 260 261 261 262 263 264 264 264 265 265 266 267 268 268 269 269 269 269 269 269 269 269 269 270 270 270 271 271 271 272 272 272 273 273 273 273 274 274 275 275 275 276 276 276 276 277 277 277 277 277 278 278
237 238 239 240 241 242 244 246 248 250 252 254 256 257 258 259 259 260 261 262 262 263 263 264 265 265 266 267 267 268 269 270 270 270 271 271 271 271 271 271 272 272 272 273 273 273 273 274 274 274 274 274 275 275 275 276 276 276 276 277 277 277 277 278 278 278 278 278 278
236 238 239 240 241 243 245 247 250 252 254 255 256 257 258 258 259 260 261 262 262 263 264 265 265 266 267 267 268 269 270 270 271 271 271 272 272 272 273 273 273 274 274 274 274 275 275 275 275 276 276 276 276 276 277 277 277 277 277 278 278 278 278 278 278 278 279 279 279
236 237 239 240 242 244 246 249 251 253 255 256 256 257 258 259 260 261 262 262 263 264 265 266 267 267 268 268 269 270 270 271 271 271 272 272 273 273 273 274 274 275 275 275 276 276 276 276 276 277 277 277 277 278 278 278 278 278 278 279 279 278 278 279 279 279 279 279 279
236 238 239 241 243 246 248 250 252 254 255 256 257 258 259 261 262 263 264 264 265 266 267 268 269 269 269 270 270 271 271 271 272 272 272 273 273 274 274 275 275 276 276 276 277 277 277 277 277 278 278 278 279 279 279 279 279 279 279 279 279 279 279 279 279 279 279 279 279
238 240 241 243 246 248 249 251 253 255 256 257 258 259 260 262 264 264 265 266 266 267 268 269 270 270 271 271 271 271 272 272 272 273 273 274 274 275 275 276 276 276 277 277 277 278 278 278 278 279 279 279 279 279 279 279 279 279 279 279 279 279 279 279 279 279 279 279 279
240 242 244 246 248 249 251 253 255 256 258 259 260 261 262 263 264 265 266 267 268 269 269 270 270 271 271 271 272 272 272 273 273 273 274 274 275 275 276 276 277 277 278 278 278 279 279 279 279 279 279 280 280 280 280 279 279 279 279 279 279 279 279 279 279 279 279 279 279
242 244 246 248 249 251 253 255 256 258 259 260 261 262 262 263 264 266 266 267 268 269 269 270 270 271 271 272 272 272 273 273 274 274 274 275 275 276 277 277 277 278 278 279 279 279 279 279 280 280 280 280 280 280 279 279 279 279 279 279 279 279 279 279 279 279 278 278 278
243 245 247 249 251 253 254 256 257 258 259 260 261 262 263 264 265 266 267 268 269 269 269 270 270 271 271 272 272 273 273 274 274 275 275 276 276 277 277 277 278 278 279 279 279 279 279 280 280 280 280 280 279 279 279 279 279 279 279 279 279 279 279 279 278 278 278 278 278
245 247 249 251 252 254 255 256 257 258 259 260 261 263 264 265 266 267 268 269 269 269 270 270 271 271 272 272 273 274 274 275 275 275 276 276 277 277 278 278 279 279 279 279 279 279 279 279 280 280 280 279 279 279 279 279 279 279 279 278 278 278 278 278 278 278 278 277 277
246 248 250 252 253 254 255 256 257 259 260 261 262 263 264 265 266 267 268 269 270 270 270 271 271 272 273 274 274 275 275 276 276 276 277 277 277 278 278 278 279 279 279 279 279 280 280 280 280 280 279 279 279 279 279 278 278 278 278 278 278 278 278 278 278 278 278 277 277
248 250 251 253 254 255 256 257 258 259 260 261 262 263 264 266 267 268 268 269 270 271 271 272 273 274 274 275 275 276 276 276 277 277 277 277 278 278 278 279 279 279 279 279 280 280 280 280 280 280 280 279 279 279 278 278 278 278 278 278 278 278 278 278 278 278 278 278 278
250 251 252 253 254 255 256 257 258 259 260 261 262 264 265 266 267 268 269 270 271 272 272 273 274 274 275 275 276 276 276 277 277 277 277 278 278 278 279 279 279 279 280 280 280 281 281 281 281 280 280 280 280 279 279 279 279 278 278 278 278 278 279 279 279 279 280 279 279
250 252 253 254 254 255 256 257 258 259 260 262 263 264 265 267 268 269 270 271 272 272 273 274 274 275 275 275 276 276 276 277 277 277 278 278 278 279 279 279 280 280 280 280 281 281 281 281 281 280 280 280 280 280 280 280 280 279 279 279 279 280 280 280 280 281 281 280 280
251 252 253 253 254 255 256 257 258 259 261 262 263 265 266 267 269 270 271 271 272 272 273 274 274 275 275 276 276 276 276 277 277 277 278 278 279 279 279 280 280 280 280 280 281 281 281 281 280 280 280 280 280 280 280 280 280 279 279 279 280 280 280 281 281 281 281 280 280
250 251 252 253 254 255 256 257 258 260 261 263 264 266 267 268 269 270 270 271 272 272 273 273 274 275 275 276 276 276 277 277 277 278 278 279 279 279 280 280 280 280 280 281 281 280 280 280 280 280 279 279 279 279 279 279 279 279 279 279 280 280 280 281 281 281 280 280 280
250 251 252 253 254 256 257 258 259 261 262 264 265 267 268 269 269 270 270 271 271 272 272 273 274 274 275 276 276 277 277 277 278 278 279 279 280 280 280 280 280 281 281 281 281 280 280 280 279 279 279 279 279 279 279 278 279 279 279 279 279 279 280 280 280 280 280 280 279
250 252 253 254 255 257 258 259 260 262 263 265 266 267 268 268 269 269 269 270 271 272 272 273 274 274 275 275 276 276 277 278 278 279 279 279 280 280 280 280 280 280 281 281 281 280 280 280 279 279 279 279 279 279 279 279 279 279 279 279 279 279 279 279 279 279 279 279 278
251 252 254 255 257 258 259 261 262 263 264 265 266 267 268 268 268 268 269 270 270 271 272 273 273 274 275 275 276 276 277 277 278 278 279 279 279 279 279 279 279 280 280 281 280 280 280 280 279 279 279 279 279 279 279 279 279 279 279 278 278 278 278 278 278 278 278 277 277
252 253 255 256 257 259 260 261 262 263 264 265 266 267 267 267 268 268 269 269 270 271 271 272 273 274 275 275 276 276 277 277 278 278 278 278 278 278 278 279 279 280 280 280 280 280 280 280 279 279 279 278 279 279 279 278 278 278 278 277 277 277 277 277 276 276 276 276 275
253 254 255 256 258 259 261 262 262 263 264 265 265 266 266 267 267 268 268 269 270 271 271 272 273 274 275 275 276 276 277 277 277 277 278 278 278 278 279 279 280 280 280 280 280 280 280 280 280 279 279 278 278 278 278 278 278 277 276 276 276 276 276 275 275 275 275 274 274
254 255 256 257 258 259 261 261 262 263 263 264 264 265 265 266 267 267 268 269 270 271 272 273 273 274 274 275 275 276 276 277 277 278 278 279 279 280 280 280 281 281 281 281 281 281 281 281 280 280 279 278 278 278 277 277 277 276 275 275 274 274 274 274 274 273 273 273 272
254 255 256 257 258 259 260 261 262 262 262 263 263 264 265 266 267 267 268 269 270 271 272 273 273 273 274 274 275 276 277 277 278 279 279 280 281 281 281 281 281 281 282 282 282 282 282 282 282 281 280 279 278 277 277 276 276 275 274 274 273 273 273 273 273 272 272 271 270
254 255 256 257 258 259 260 261 261 262 262 263 263 264 265 266 267 268 269 270 271 272 272 273 273 273 274 274 275 277 278 278 279 280 280 281 281 281 281 282 282 282 282 283 283 283 283 283 282 281 280 279 278 277 276 275 275 274 273 273 272 272 272 272 272 271 270 270 269
255 256 257 258 259 260 261 262 262 262 263 264 264 265 266 267 267 268 269 270 271 272 272 273 273 274 274 275 276 277 278 279 279 280 280 280 280 281 281 281 282 282 283 283 283 283 283 283 282 282 281 280 278 277 276 275 274 273 272 272 272 272 271 271 270 270 269 269 269
256 257 259 260 261 262 262 263 263 263 264 264 265 265 266 267 267 268 269 270 271 272 273 273 274 274 275 276 277 277 278 278 279 279 280 280 280 280 280 281 281 282 282 283 283 283 283 282 282 281 281 280 278 277 276 275 273 272 271 271 271 271 270 270 270 269 269 268 268
258 259 260 262 263 263 264 264 264 264 264 264 265 265 266 266 267 268 269 270 271 272 272 273 274 274 275 276 277 277 278 278 279 279 280 280 280 280 281 281 281 282 282 283 283 283 282 282 281 281 280 279 278 277 276 275 273 271 270 270 270 270 269 269 268 268 268 268 268
260 261 262 263 264 264 265 264 264 264 264 264 264 265 265 266 267 268 269 270 271 272 272 273 274 275 275 276 277 278 278 278 279 280 280 281 281 281 282 282 283 283 283 283 283 282 282 281 281 281 280 279 278 277 276 274 272 271 270 269 268 268 268 268 267 267 267 267 267
263 264 264 265 265 265 265 265 264 264 263 263 264 264 265 266 267 268 269 270 271 271 272 273 274 275 275 276 277 278 278 279 280 280 281 281 282 282 283 284 284 284 284 283 282 282 282 282 282 281 281 280 278 277 275 274 272 270 269 268 267 267 267 267 267 267 267 267 267
265 265 265 266 265 265 265 264 264 263 263 263 263 264 265 266 267 268 269 270 270 271 272 273 274 274 275 276 277 278 279 280 281 281 282 283 283 283 284 284 285 285 284 283 283 282 282 282 282 282 281 280 278 277 275 273 272 270 269 268 267 267 267 266 266 266 266 266 266
266 266 266 266 266 265 264 263 263 262 262 262 262 263 264 265 266 267 269 269 270 271 272 273 274 274 275 276 277 278 279 281 282 282 283 283 284 284 284 284 285 285 284 283 283 283 283 283 283 283 281 280 278 276 275 273 272 271 269 268 268 267 267 267 267 267 267 267 267
266 266 266 266 265 264 263 262 261 261 260 260 261 261 262 264 265 266 268 269 270 271 272 273 274 275 276 277 278 279 280 281 281 282 283 284 284 284 284 284 284 284 284 284 283 283 283 283 283 282 281 279 278 276 274 273 272 271 270 269 269 268 268 268 269 269 269 269 269